STARLINK-31844 (60583 NORAD) Tracking and Keplerian Element Data

This shows tracking and keplerian element data for the satellite.

Feedback or suggestion? Click here.




ElementValue
Catalog60583
NameSTARLINK-31844
Epoch Orbit939
Epoch Day286.10639552
Epoch Year2024
RAAN173.6955
Inclination53.1586
Eccentricity0.0001174
Argument of Perigee83.4283
Mean Anonmoly276.6855
Mean Motion15.39597001
Decay Rate-9.008E-05
L11 60583U 24150A 24286.10639552 -.00009008 00000+0 -21564-3 0 9996
L22 60583 53.1586 173.6955 0001174 83.4283 276.6855 15.39597001 9399



Live tracking and technical data element details for STARLINK-31844 (NORAD 60583). STARLINK-31844 can be tracked NOW for your location showing map with azimuth and elevation plus other details from your city location.







IsCatalogInMostPopularTable: catalog: 60583, numindb: 7
Update: records affected: 1



GetName: 60583 STARLINK-31844

Hit Count: updated at: Wed, 04 Dec 2024 17:40:39 GMT